Simultaneous Nadir Overpasses (SNOs) Predictions

Prediction of SNOs between AQUA and NPP Satellite Orbit:

Table of predicted SNOs for the next 14.0 days since TLE Epoch: 10/16/2021
Index Date (AQUA) Time (AQUA) Lat,Lon (AQUA) SZA (AQUA ) Date (NPP) Time (NPP) Lat,Lon (NPP) SZA (NPP ) Distance(km) Time Diff (sec)
1 10/18/2021 13:16:04 -74.90, 37.05 72.88 10/18/2021 13:15:19 -74.91, 37.10 72.85 1.59 45
2 10/18/2021 14:05:06 76.07,-151.99 105.90 10/18/2021 14:05:38 76.07,-151.93 105.86 1.57 32
3 10/21/2021 05:32:23 -75.34, 154.13 72.43 10/21/2021 05:32:09 -75.35, 154.15 72.43 0.83 14
4 10/21/2021 06:21:26 76.45, -34.87 106.40 10/21/2021 06:22:29 76.45, -34.83 106.33 1.07 63
5 10/23/2021 20:59:39 74.54, 100.28 109.29 10/23/2021 20:58:39 74.54, 100.30 109.34 0.57 60
6 10/23/2021 21:48:41 -75.82, -88.62 72.04 10/23/2021 21:48:58 -75.82, -88.58 72.07 1.06 17
7 10/26/2021 13:15:54 75.17,-142.21 109.51 10/26/2021 13:15:25 75.17,-142.17 109.53 1.38 29
8 10/26/2021 14:04:58 -76.32, 28.85 71.71 10/26/2021 14:05:46 -76.33, 28.93 71.77 2.31 48
9 10/29/2021 04:43:31 -73.31, 161.65 67.77 10/29/2021 04:42:17 -73.33, 161.55 67.68 4.44 74
10 10/29/2021 05:32:17 75.33, -25.89 110.21 10/29/2021 05:32:20 75.32, -25.97 110.23 2.62 3



Historial Predications of SNOs between AQUA and NPP
